Location: Cassano d�Adda
(45.5333°N, 9.5167°E)
Time: 11:42:07
(UTC+00:00)

Cosmos 1943 Rocket - Pass Details

Date: 08 December 2019
Orbit: 812 x 844 km, 71.0° (Epoch: 21 January)

Event Time Altitude Azimuth Distance (km) Brightness Sun altitude
Rises 16:50:53 0° 343° (NNW) 3,409 5.3 -12.2°
Reaches altitude 10° 16:54:44 10° 8° (N) 2,467 4.4 -12.8°
Maximum altitude 16:57:33 14° 39° (NE) 2,199 3.9 -13.3°
Enters shadow 16:57:41 14° 40° (NE) 2,200 3.9 -13.3°
